Wheaton NDB, MN

7:18 AM CST on December 16, 2017 (GMT -0600)
Wheaton Municipal

Weather History for KETH - February, 2014

Change the Weather History Date:

Thursday, February 27, 2014

  Actual Average Record
Temperature  
Mean Temperature -2 °F -  
Max Temperature 6 °F 34 °F 64 °F (2016)
Min Temperature -11 °F 17 °F -14 °F (1962)
Degree Days  
Heating Degree Days 68    
Moisture  
Dew Point -11 °F    
Average Humidity 66    
Maximum Humidity 78    
Minimum Humidity 55    
Precipitation  
Precipitation 0.00 in - - ()
Sea Level Pressure  
Sea Level Pressure 30.11 in    
Wind  
Wind Speed 9 mph (NE)    
Max Wind Speed 17 mph    
Max Gust Speed 21 mph    
Visibility 10 miles    
Events      
Averages and records for this station are not official NWS values.
T = Trace of Precipitation, MM = Missing Value Source: NWS Daily Summary

Daily Weather History Graph

Daily Weather History Graph

Search for Another Location

Airport or City:

Trip Planner

Search our weather history database for the weather conditions in past years. The results will help you decide how hot, cold, wet, or windy it might be!

Date:

Astronomy

Feb. 27, 2014 Rise Set
Actual Time 7:08 AM CST 6:10 PM CST
Civil Twilight 6:38 AM CST 6:40 PM CST
Nautical Twilight 6:03 AM CST 7:14 PM CST
Astronomical Twilight 5:29 AM CST 7:49 PM CST
Moon 5:45 AM CST (2/27) 4:34 PM CST (2/27)
Length of Visible Light 12h 01m
Length of Day
11h 01m
Waning Crescent, 4% of the Moon is Illuminated
Feb 27
Waning Crescent
Mar 1
New
Mar 8
First Quarter
Mar 16
Full
Mar 23
Last Quarter

Hourly Weather History & Observations

Time (CST) Temp. Windchill Dew Point Humidity Pressure Visibility Wind Dir Wind Speed Gust Speed Precip Events Conditions
12:14 AM -4.0 °F -23.0 °F -13.0 °F 65% 30.12 in 10.0 mi NNW 12.7 mph - N/A   Clear
12:34 AM -5.8 °F -24.4 °F -13.0 °F 71% 30.13 in 10.0 mi NNW 11.5 mph - N/A   Clear
12:54 AM -5.8 °F -23.4 °F -13.0 °F 71% 30.13 in 10.0 mi NNW 10.4 mph - N/A   Clear
1:14 AM -5.8 °F -22.4 °F -13.0 °F 71% 30.14 in 10.0 mi NW 9.2 mph - N/A   Clear
1:34 AM -5.8 °F -26.0 °F -14.8 °F 65% 30.14 in 10.0 mi NNW 13.8 mph 19.6 mph N/A   Clear
1:54 AM -7.6 °F -27.5 °F -14.8 °F 71% 30.14 in 10.0 mi NNW 12.7 mph - N/A   Clear
2:14 AM -7.6 °F -25.7 °F -16.6 °F 65% 30.15 in 10.0 mi NNW 10.4 mph - N/A   Clear
2:34 AM -7.6 °F -24.6 °F -16.6 °F 65% 30.16 in 10.0 mi NW 9.2 mph - N/A   Clear
2:54 AM -7.6 °F -24.6 °F -16.6 °F 65% 30.16 in 10.0 mi NW 9.2 mph - N/A   Clear
3:14 AM -9.4 °F -25.6 °F -18.4 °F 65% 30.16 in 10.0 mi NW 8.1 mph - N/A   Clear
3:34 AM -9.4 °F -25.6 °F -18.4 °F 65% 30.17 in 10.0 mi NW 8.1 mph - N/A   Clear
3:54 AM -9.4 °F -26.8 °F -18.4 °F 65% 30.18 in 10.0 mi NW 9.2 mph - N/A   Clear
4:14 AM -9.4 °F -25.6 °F -18.4 °F 65% 30.18 in 10.0 mi NW 8.1 mph - N/A   Clear
4:34 AM -9.4 °F -26.8 °F -18.4 °F 65% 30.19 in 10.0 mi WNW 9.2 mph - N/A   Clear
4:54 AM -9.4 °F -25.6 °F -18.4 °F 65% 30.19 in 10.0 mi NW 8.1 mph - N/A   Clear
5:14 AM -9.4 °F -24.3 °F -18.4 °F 65% 30.20 in 10.0 mi WNW 6.9 mph - N/A   Clear
5:34 AM -9.4 °F -22.7 °F -18.4 °F 65% 30.20 in 10.0 mi NW 5.8 mph - N/A   Clear
5:54 AM -9.4 °F -20.9 °F -18.4 °F 65% 30.21 in 10.0 mi WNW 4.6 mph - N/A   Clear
6:14 AM -9.4 °F -20.9 °F -18.4 °F 65% 30.21 in 10.0 mi NW 4.6 mph - N/A   Clear
6:34 AM -11.2 °F -23.0 °F -18.4 °F 70% 30.21 in 10.0 mi NW 4.6 mph - N/A   Clear
6:54 AM -11.2 °F -20.6 °F -18.4 °F 70% 30.20 in 10.0 mi WNW 3.5 mph - N/A   Clear
7:14 AM -11.2 °F -20.6 °F -20.2 °F 64% 30.20 in 10.0 mi West 3.5 mph - N/A   Clear
7:34 AM -11.2 °F -23.0 °F -18.4 °F 70% 30.20 in 10.0 mi WNW 4.6 mph - N/A   Clear
7:54 AM -9.4 °F -20.9 °F -18.4 °F 65% 30.21 in 10.0 mi NW 4.6 mph - N/A   Clear
8:14 AM -9.4 °F -20.9 °F -16.6 °F 71% 30.21 in 10.0 mi NW 4.6 mph - N/A   Clear
8:34 AM -7.6 °F -22.1 °F -18.4 °F 59% 30.21 in 10.0 mi NW 6.9 mph - N/A   Clear
8:54 AM -7.6 °F -18.8 °F -18.4 °F 59% 30.22 in 10.0 mi North 4.6 mph - N/A   Clear
9:14 AM -7.6 °F -18.8 °F -18.4 °F 59% 30.22 in 10.0 mi North 4.6 mph - N/A   Clear
9:34 AM -5.8 °F -14.5 °F -16.6 °F 60% 30.21 in 10.0 mi North 3.5 mph - N/A   Clear
9:54 AM -5.8 °F -14.5 °F -16.6 °F 60% 30.21 in 10.0 mi North 3.5 mph - N/A   Clear
10:14 AM -4.0 °F -12.4 °F -16.6 °F 55% 30.21 in 10.0 mi NW 3.5 mph - N/A   Clear
10:34 AM -4.0 °F - -14.8 °F 60% 30.21 in 10.0 mi Calm Calm - N/A   Clear
10:54 AM -2.2 °F -12.5 °F -14.8 °F 55% 30.21 in 10.0 mi NW 4.6 mph - N/A   Clear
11:14 AM -2.2 °F - -14.8 °F 55% 30.21 in 10.0 mi Calm Calm - N/A   Clear
11:34 AM -2.2 °F - -14.8 °F 55% 30.20 in 10.0 mi Calm Calm - N/A   Clear
11:54 AM -2.2 °F - -14.8 °F 55% 30.20 in 10.0 mi Calm Calm - N/A   Clear
12:14 PM -0.4 °F - -13.0 °F 55% 30.19 in 10.0 mi Calm Calm - N/A   Clear
12:34 PM -0.4 °F -10.4 °F -11.2 °F 60% 30.18 in 10.0 mi SE 4.6 mph - N/A   Clear
12:54 PM 1.4 °F - -11.2 °F 56% 30.16 in 10.0 mi Calm Calm - N/A   Clear
1:14 PM 1.4 °F - -9.4 °F 61% 30.15 in 10.0 mi Calm Calm - N/A   Clear
1:34 PM 1.4 °F -8.3 °F -9.4 °F 61% 30.13 in 10.0 mi ENE 4.6 mph - N/A   Clear
1:54 PM 1.4 °F -9.9 °F -7.6 °F 66% 30.12 in 10.0 mi ENE 5.8 mph - N/A   Clear
2:14 PM 3.2 °F -7.8 °F -5.8 °F 66% 30.11 in 10.0 mi ESE 5.8 mph - N/A   Clear
2:34 PM 3.2 °F -9.1 °F -5.8 °F 66% 30.10 in 10.0 mi East 6.9 mph - N/A   Clear
2:54 PM 3.2 °F -10.3 °F -5.8 °F 66% 30.09 in 10.0 mi East 8.1 mph - N/A   Clear
3:14 PM 5.0 °F -6.9 °F -5.8 °F 61% 30.08 in 10.0 mi East 6.9 mph - N/A   Clear
3:34 PM 5.0 °F -9.1 °F -4.0 °F 66% 30.08 in 10.0 mi East 9.2 mph - N/A   Clear
3:54 PM 6.8 °F -8.6 °F -4.0 °F 61% 30.06 in 10.0 mi East 11.5 mph - N/A   Clear
4:14 PM 6.8 °F -9.3 °F -4.0 °F 61% 30.06 in 10.0 mi ESE 12.7 mph - N/A   Clear
4:34 PM 6.8 °F -7.8 °F -2.2 °F 67% 30.05 in 10.0 mi SE 10.4 mph - N/A   Clear
4:54 PM 6.8 °F -8.6 °F -2.2 °F 67% 30.04 in 10.0 mi ESE 11.5 mph 16.1 mph N/A   Clear
5:14 PM 6.8 °F -7.8 °F -2.2 °F 67% 30.03 in 10.0 mi ESE 10.4 mph - N/A   Clear
5:34 PM 6.8 °F -10.0 °F -4.0 °F 61% 30.03 in 10.0 mi SE 13.8 mph - N/A   Clear
5:54 PM 5.0 °F -14.2 °F -4.0 °F 66% 30.02 in 10.0 mi SE 17.3 mph - N/A   Clear
6:14 PM 3.2 °F -15.3 °F -5.8 °F 66% 30.02 in 10.0 mi ESE 15.0 mph - N/A   Scattered Clouds
6:34 PM 3.2 °F -15.9 °F -5.8 °F 66% 30.01 in 10.0 mi SE 16.1 mph - N/A   Scattered Clouds
6:54 PM 3.2 °F -13.1 °F -5.8 °F 66% 30.01 in 10.0 mi SE 11.5 mph - N/A   Mostly Cloudy
7:14 PM 3.2 °F -14.6 °F -5.8 °F 66% 30.01 in 10.0 mi SE 13.8 mph - N/A   Mostly Cloudy
7:34 PM 1.4 °F -17.6 °F -5.8 °F 72% 30.00 in 10.0 mi SE 15.0 mph - N/A   Mostly Cloudy
7:54 PM 1.4 °F -16.9 °F -5.8 °F 72% 29.99 in 10.0 mi SE 13.8 mph - N/A   Scattered Clouds
8:14 PM 1.4 °F -16.1 °F -5.8 °F 72% 29.99 in 10.0 mi SE 12.7 mph 20.7 mph N/A   Clear
8:34 PM 1.4 °F -16.9 °F -5.8 °F 72% 29.98 in 10.0 mi SE 13.8 mph - N/A   Clear
8:54 PM 1.4 °F -18.2 °F -5.8 °F 72% 29.98 in 10.0 mi SE 16.1 mph - N/A   Clear
9:14 PM 1.4 °F -17.6 °F -5.8 °F 72% 29.97 in 10.0 mi SE 15.0 mph - N/A   Clear
9:34 PM 1.4 °F -16.1 °F -5.8 °F 72% 29.97 in 10.0 mi SE 12.7 mph - N/A   Clear
9:54 PM 1.4 °F -16.1 °F -5.8 °F 72% 29.97 in 10.0 mi SE 12.7 mph - N/A   Clear
10:14 PM 1.4 °F -17.6 °F -5.8 °F 72% 29.96 in 10.0 mi SE 15.0 mph - N/A   Clear
10:34 PM -0.4 °F -18.4 °F -5.8 °F 78% 29.96 in 10.0 mi SE 12.7 mph - N/A   Clear
10:54 PM -0.4 °F -18.4 °F -5.8 °F 78% 29.94 in 10.0 mi SE 12.7 mph - N/A   Clear
11:14 PM -0.4 °F -20.5 °F -5.8 °F 78% 29.93 in 10.0 mi SE 16.1 mph 19.6 mph N/A   Clear
11:34 PM -0.4 °F -20.5 °F -5.8 °F 78% 29.92 in 10.0 mi SE 16.1 mph - N/A   Clear
11:54 PM -0.4 °F -19.9 °F -7.6 °F 72% 29.90 in 10.0 mi SE 15.0 mph - N/A   Clear